Weather History for Atlanta Dekalb, GA

Change the Weather History Date:

Tuesday, February 11, 2014

  Actual Average Record
Temperature  
Mean Temperature 36 °F 45 °F  
Max Temperature 39 °F 55 °F 72 °F (1999)
Min Temperature 33 °F 36 °F 23 °F (2012)
Degree Days  
Heating Degree Days 29 20  
Month to date heating degree days 246 225  
Since 1 July heating degree days 2336 2098  
Moisture  
Dew Point 32 °F    
Average Humidity 84    
Maximum Humidity 92    
Minimum Humidity 76    
Precipitation  
Precipitation 0.44 in 0.17 in 0.71 in (2013)
Month to date precipitation 1.42 1.83  
Year to date precipitation 4.39 6.63  
Snow  
Snow 0.00 in - - ()
Month to date snowfall 0.0  
Since 1 July snowfall T  
Snow Depth 0.00 in    
Sea Level Pressure  
Sea Level Pressure 30.23 in    
Wind  
Wind Speed 6 mph (ENE)    
Max Wind Speed 12 mph    
Max Gust Speed 21 mph    
Visibility 6 miles    
Events Rain    
T = Trace of Precipitation, MM = Missing Value Source: NWS Daily Summary

Daily Weather History Graph

Daily Weather History Graph

Search for Another Location

Airport:

Trip Planner

Search our weather history database for the weather conditions in past years. The results will help you decide how hot, cold, wet, or windy it might be!

Date:

Astronomy

Feb. 11, 2014 Rise Set
Actual Time 7:25 AM EST 6:17 PM EST
Civil Twilight 6:59 AM EST 6:43 PM EST
Nautical Twilight 6:30 AM EST 7:12 PM EST
Astronomical Twilight 6:01 AM EST 7:41 PM EST
Moon 3:40 PM EST (2/11) 4:58 AM EST (2/11)
Length of Visible Light 11h 43m
Length of Day
10h 52m
Waxing Gibbous, 90% of the Moon is Illuminated
Feb 11
Waxing Gibbous
Feb 14
Full
Feb 22
Last Quarter
Mar 1
New
Mar 8
First Quarter

Hourly Weather History & Observations

Time (EST) Temp. Windchill Dew Point Humidity Pressure Visibility Wind Dir Wind Speed Gust Speed Precip Events Conditions
12:53 AM 37.9 °F - 32.0 °F 79% 30.16 in 5.0 mi Calm Calm - 0.02 in Rain Light Rain
1:53 AM 37.0 °F 33.3 °F 34.0 °F 89% 30.17 in 4.0 mi NNW 4.6 mph - 0.05 in Rain Light Rain
2:53 AM 37.0 °F 33.3 °F 35.1 °F 93% 30.15 in 4.0 mi North 4.6 mph - 0.04 in Rain Light Rain
3:53 AM 39.0 °F - 36.0 °F 89% 30.14 in 4.0 mi Calm Calm - 0.04 in Rain Light Rain
4:53 AM 39.0 °F 35.7 °F 36.0 °F 89% 30.17 in 5.0 mi NE 4.6 mph - 0.03 in Rain Light Rain
5:53 AM 37.9 °F 34.4 °F 35.1 °F 89% 30.19 in 7.0 mi Variable 4.6 mph - 0.03 in Rain Light Rain
6:53 AM 36.0 °F 30.3 °F 33.1 °F 89% 30.20 in 6.0 mi Variable 6.9 mph - 0.06 in Rain Light Rain
7:53 AM 35.1 °F 29.3 °F 32.0 °F 89% 30.23 in 4.0 mi ENE 6.9 mph - 0.01 in Rain Light Rain
8:53 AM 35.1 °F 30.1 °F 32.0 °F 89% 30.25 in 4.0 mi ENE 5.8 mph - 0.04 in Rain Light Rain
8:55 AM 35.6 °F 29.9 °F 32.0 °F 87% 30.21 in 4.0 mi Variable 6.9 mph - 0.00 in Rain Light Rain
9:27 AM 35.6 °F 29.9 °F 32.0 °F 87% 30.22 in 4.0 mi ENE 6.9 mph - 0.03 in Rain Light Rain
9:53 AM 35.1 °F 28.6 °F 32.0 °F 89% 30.27 in 6.0 mi ENE 8.1 mph - 0.05 in Rain Light Rain
10:53 AM 35.1 °F 30.1 °F 32.0 °F 89% 30.28 in 4.0 mi NE 5.8 mph - 0.03 in Rain Light Rain
11:53 AM 35.1 °F 28.6 °F 32.0 °F 89% 30.28 in 5.0 mi East 8.1 mph - 0.04 in Rain Light Rain
12:53 PM 35.1 °F 31.0 °F 32.0 °F 89% 30.27 in 4.0 mi Variable 4.6 mph - 0.00 in   Overcast
1:53 PM 35.1 °F 29.3 °F 32.0 °F 89% 30.25 in 6.0 mi Variable 6.9 mph - N/A   Overcast
2:53 PM 35.1 °F 31.0 °F 30.9 °F 85% 30.24 in 8.0 mi Variable 4.6 mph - N/A   Overcast
3:50 PM 35.6 °F 29.2 °F 32.0 °F 87% 30.19 in 5.0 mi East 8.1 mph - 0.00 in   Overcast
3:53 PM 35.1 °F 27.9 °F 30.9 °F 85% 30.24 in 5.0 mi ENE 9.2 mph - 0.00 in   Overcast
4:53 PM 35.1 °F 28.6 °F 30.9 °F 85% 30.25 in 7.0 mi ENE 8.1 mph - 0.00 in   Overcast
5:53 PM 35.1 °F 30.1 °F 30.0 °F 82% 30.27 in 7.0 mi Variable 5.8 mph - N/A   Overcast
6:53 PM 35.1 °F 30.1 °F 30.0 °F 82% 30.28 in 8.0 mi Variable 5.8 mph - N/A   Overcast
7:53 PM 35.1 °F 30.1 °F 30.0 °F 82% 30.28 in 7.0 mi East 5.8 mph - N/A   Overcast
8:53 PM 34.0 °F 29.8 °F 28.9 °F 82% 30.28 in 8.0 mi Variable 4.6 mph 16.1 mph N/A   Overcast
9:53 PM 34.0 °F 29.8 °F 30.0 °F 85% 30.30 in 7.0 mi East 4.6 mph - N/A   Overcast
10:53 PM 34.0 °F 27.2 °F 28.9 °F 82% 30.29 in 9.0 mi East 8.1 mph - N/A   Overcast
11:00 PM 33.8 °F 27.0 °F 28.4 °F 81% 30.24 in 9.0 mi East 8.1 mph - N/A   Overcast
11:15 PM 33.8 °F 28.6 °F 28.4 °F 81% 30.23 in 9.0 mi East 5.8 mph - N/A   Overcast
11:53 PM 34.0 °F 26.0 °F 28.9 °F 82% 30.27 in 7.0 mi East 10.4 mph - 0.00 in Rain Light Rain